656  
ASUS43 KIWX 190210  
RWRIWX  
 
KIWX WEATHER ROUNDUP  
NATIONAL WEATHER SERVICE NORTHERN INDIANA  
900 PM EST FRI JAN 18 2019  
 
NOTE: "FAIR" INDICATES FEW OR NO CLOUDS BELOW 12,000 FEET WITH NO  
SIGNIFICANT WEATHER AND/OR S TO VISIBILITY
.  
 
* THESE STATIONS ARE NOT UNDER NWS QUALITY CONTROL. THEY ALSO MAY NOT  
REPORT WEATHER SUCH AS PRECIPITATION OR FOG.
 
 
INZ001>027-190300-  
NORTHERN INDIANA  
 
CITY SKY/WX TMP DP RH WIND PRES REMARKS
 
GARY* CLOUDY 32 25 74 E12G29 30.13F WCI 23  
VALPARAISO CLOUDY 30 22 72 E13 30.11F WCI 20  
MICHIGAN CITY* CLOUDY 28 21 74 E7 30.13F WCI 21  
LAPORTE* CLOUDY 27 23 85 E12 30.12F WCI 17  
KNOX* CLOUDY 30 27 86 E10 30.11F WCI 21  
SOUTH BEND CLOUDY 26 23 88 E6 30.14F WCI 19  
ELKHART* LGT SNOW 27 23 86 E10 30.15F WCI 17  
GOSHEN FAIR 27 24 89 NE10 30.14F WCI 17  
MONTICELLO* CLOUDY 32 26 79 E8 30.09F WCI 25  
LOGANSPORT* CLOUDY 32 28 86 E9 30.11F WCI 24  
ROCHESTER* CLOUDY 32 27 80 E9 30.11F WCI 24  
WARSAW* CLOUDY 30 27 86 E6 30.13F WCI 24  
KENDALLVILLE* CLOUDY 28 23 81 E8 30.14F HAZE WCI 20  
AUBURN* CLOUDY 30 27 86 E7 30.16F WCI 23  
FORT WAYNE CLOUDY 33 27 78 E13 30.14F WCI 24  
HUNTINGTON* CLOUDY 32 28 84 E5 30.13F WCI 27  
PERU/GRISSOM CLOUDY 32 30 92 E12 30.09F WCI 23  
 

 
INZ028>050-190300-  
CENTRAL INDIANA  
 
CITY SKY/WX TMP DP RH WIND PRES REMARKS
 
LAFAYETTE CLOUDY 32 28 85 E13 30.08F WCI 22  
KOKOMO* CLOUDY 32 28 85 E10 30.10F WCI 24  
MUNCIE* CLOUDY 34 27 75 E12 30.11F WCI 25  
INDIANAPOLIS CLOUDY 34 29 82 E13 30.07F WCI 25  
 

 
MIZ043>046-050>051-056>058-064>065-071>073-077>080-190300-  
SOUTHWEST LOWER MICHIGAN  
 
CITY SKY/WX TMP DP RH WIND PRES REMARKS
 
BATTLE CREEK LGT SNOW 26 19 74 E7 30.17F WCI 18  
BENTON HARBOR LGT SNOW 26 22 84 NE8 30.15F VSB 3/4 WCI 18  
COLDWATER* LGT SNOW 27 26 96 NE7 30.16F WCI 20  
HILLSDALE* LGT SNOW 27 22 83 NE6 30.15F WCI 20  
HOLLAND CLOUDY 27 14 58 NE8 30.18F WCI 19  
GRAND RAPIDS CLOUDY 26 14 60 NE5 30.19S WCI 20  
KALAMAZOO LGT SNOW 25 21 85 E6 30.17F FOG WCI 18  
STURGIS* LGT SNOW 28 25 89 E7 30.15F WCI 20  
THREE RIVERS* LGT SNOW 26 22 85 E6 30.17S WCI 19  
 

 
OHZ001>008-015>018-024>025-190300-  
NORTHWEST OHIO  
 
CITY SKY/WX TMP DP RH WIND PRES REMARKS
 
DEFIANCE CLOUDY 30 24 78 E5 30.18S WCI 25  
FINDLAY CLOUDY 33 26 75 E6 30.16F WCI 28  
OTTAWA* CLOUDY 30 27 86 E6 30.18F WCI 24  
TOLEDO EXPRESS CLOUDY 31 23 72 NE8 30.19F WCI 23  
LIMA CLOUDY 32 26 78 E7 30.15F WCI 26  
 

 
AND FOR LAKE MICHIGAN COASTAL AND OPEN LAKE BUOY OBSERVATIONS  
 
STATION/POSITION TEMP WIND PRES VSBY WAVE
 
AIR SEA DIR/SP/G HT/PER  
(F) (DEG/KT/KT) (MB) (MI) (FT/S)  
CALUMET HARBOR 30 70/ 15/ 23 1019.8F  
BURNS HARBOR 29 80/ 9/ 11 1020.3F  
SAINT JOSEPH 25 40/ 4/ 7 1020.7  
 

 

 
 
 
CLICK HERE TO GO TO PREVIOUS BULLETINS.

The Nexlab IN Page
The Nexlab OH Page
The Nexlab MI Page Main Text Page